Regional Weather Roundup
Issued by NWS

Home | Current Version | Previous Version | Graphics & Text | Print | Product List | Glossary On
Versions: 1 2 3 4 5 6 7 8 9 10 11 12 13 14 15 16 17 18 19 20 21 22 23 24 25 26 27 28 29 30 31 32 33 34 35 36 37 38 39 40 41 42 43 44 45 46 47 48 49
000
ASUS43 KDMX 022007
RWRIA

WEATHER ROUNDUP FOR IOWA
NATIONAL WEATHER SERVICE DES MOINES IA
300 PM CDT THU JUL 02 2015

NOTE: "FAIR" INDICATES FEW OR NO CLOUDS BELOW 12,000 FEET WITH NO
SIGNIFICANT WEATHER AND/OR OBSTRUCTIONS TO VISIBILITY.

* - THESE STATIONS ARE NOT NWS STATIONS...THUS NOT UNDER NWS
QUALITY CONTROL.  THEY ALSO DO NOT REPORT WEATHER SUCH
AS PRECIPITATION OR FOG.

IAZ001>003-012>014-020>022-031>034-043>046-022100-
   NORTHWEST IOWA

CITY           SKY/WX    TMP DP  RH WIND       PRES   REMARKS
CARROLL *      MOSUNNY   66  59  77 E12       29.99S
CHEROKEE *     CLOUDY    66  59  77 SE6       30.00S
DENISON *      CLOUDY    66  61  82 E7        29.97S
LE MARS *      SUNNY     66  59  77 VRB7      30.01R
ORANGE CITY *  MOSUNNY   66  57  72 E5        30.00S
SHELDON *      SUNNY     70  61  73 SE10      30.00S
SIOUX CITY     CLOUDY    69  61  75 E13       29.97S
SPENCER        CLOUDY    71  52  50 E7        30.01F
STORM LAKE *   SUNNY     66  57  72 E9        30.01F
$$

IAZ055>058-069>071-079>083-090>094-022100-
   SOUTHWEST IOWA

CITY           SKY/WX    TMP DP  RH WIND       PRES   REMARKS
ATLANTIC *     MOSUNNY   70  61  73 SE10G16   29.97F
AUDUBON *      LGT RAIN  66  63  88 E7        30.00R
CLARINDA *     CLOUDY    70  66  88 E8        29.97F
COUNCIL BLFS * CLOUDY    68  64  88 E10       29.96R FOG
CRESTON *      MOSUNNY   70  61  73 E9G15     29.98S
HARLAN  *      MOSUNNY   72  66  83 E12       30.01R
LAMONI         CLOUDY    70  60  70 E6        29.97S
RED OAK *      CLOUDY    70  66  88 E9        29.96F FOG
SHENANDOAH *   PTSUNNY   70  66  88 SE7       29.96S
$$

IAZ047>049-059>061-072>074-084-022100-
   CENTRAL IOWA

CITY           SKY/WX    TMP DP  RH WIND       PRES   REMARKS
AMES           CLOUDY    68  52  56 SE5       30.00S
ANKENY *       SUNNY     68  54  60 CALM      29.99S
CHARITON *     SUNNY     68  55  64 NE8       29.98S
DES MOINES     CLOUDY    68  49  50 E7        29.99S
GRINNELL*      CLOUDY    70  52  52 E7        30.00F
KNOXVILLE *    SUNNY     68  48  49 E7        29.98F
MARSHALLTOWN   CLOUDY    69  54  58 E10       30.00R
PELLA *        CLOUDY    70  54  56 E3        30.00F HAZE
PERRY *          N/A     66  57  72 E8        29.99F
$$

IAZ004>006-015-016-023>025-035-036-022100-
   NORTH CENTRAL IOWA

CITY           SKY/WX    TMP DP  RH WIND       PRES   REMARKS
ALGONA *       SUNNY     70  54  56 SE7       30.02S
CLARION *      SUNNY     70  48  46 SE8       30.02S
ESTHERVILLE    PTSUNNY   69  51  52 SE8       30.02R
FORT DODGE *   CLOUDY    66  54  63 E8        30.01F
MASON CITY     MOSUNNY   73  52  47 SE6       30.03S
FOREST CITY *  SUNNY     70  52  52 SE9       30.03R
IOWA FALLS *     N/A     70  52  52 E6        30.03S
$$

IAZ007>011-017>019-026>030-037>042-050>054-066-022100-
   NORTHEAST IOWA

CITY           SKY/WX    TMP DP  RH WIND       PRES   REMARKS
CEDAR RAPIDS   PTSUNNY   71  54  54 NE12      29.98S
CHARLES CITY * SUNNY     72  52  49 VRB3      30.02S
CLINTON *      MOSUNNY   72  54  53 NE12      30.02S
DECORAH *        N/A    N/A N/A N/A MISG        N/A
DUBUQUE        MOSUNNY   71  51  49 NE9       30.00F
MONTICELLO *   SUNNY     72  55  56 E10       29.99F
OELWEIN *      SUNNY     72  55  56 VRB6G15   30.01F
WATERLOO       PTSUNNY   72  54  53 E9        29.99F
$$

IAZ064-065-067-068-078-022100-
   EAST CENTRAL IOWA

CITY           SKY/WX    TMP DP  RH WIND       PRES   REMARKS
DAVENPORT      MOSUNNY   72  53  51 E13       29.99S
IOWA CITY      PTSUNNY   73  53  49 E9        29.98S
MT. PLEASANT * PTSUNNY   75  52  43 E7G16     29.97S
MUSCATINE *    SUNNY     73  50  43 E10       29.97S
QUAD CITIES    MOSUNNY   72  55  55 E15       29.97F
$$

IAZ062-063-075>077-085>089-095>099-022100-
   SOUTHEAST IOWA

CITY           SKY/WX    TMP DP  RH WIND       PRES   REMARKS
BURLINGTON     PTSUNNY   72  57  59 NE7       29.96S
FAIRFIELD *    SUNNY     72  50  46 E8        29.98S
FORT MADISON * SUNNY     70  59  68 NE3       29.97S
KEOKUK *       SUNNY     70  57  64 NE5       29.96S
OSKALOOSA *      N/A     70  52  52 NE6       29.99S
CENTERVILLE *  SUNNY     68  55  64 NE8       29.99S
OTTUMWA        PTSUNNY   70  50  49 NE7       29.97R
WASHINGTON *   SUNNY     73  54  49 E10       29.99S
$$

ABBREVIATIONS USED IN REMARKS
   TC - TEMPERATURES IN CELSIUS
  WCI - WIND CHILL INDEX
   HX - HEAT INDEX
  VSB - VISIBILITY
$$



USA.gov is the U.S. government's official web portal to all federal, state and local government web resources and services.